This demonstration page uses our WeatherBlox Daily Observations layout. Learn more.

Left ArrowRight Arrow

34.74481, -87.66753

Hourly Observations for February 27, 2021

Temp ( °F °C ) Dew Point ( °F °C ) Humidity (%) Winds ( mph kmh ) Pressure ( in mb ) Visibility ( mi km ) Precip ( " mm )
12:53 am 00:53 Clear 67 19.4 59 15 76 76 SSW 20 31 29.94 1014 10 16 0.00 0.00
1:53 am 01:53 Mostly Clear 67 19.4 60 15.6 79 79 SW 15 24 29.96 1015 10 16 0.00 0.00
2:53 am 02:53 Partly Cloudy 68 20 60 15.6 76 76 SW 16 26 29.97 1015 10 16 0.00 0.00
3:53 am 03:53 Cloudy 68 20 60 15.6 76 76 SW 13 20 29.98 1015 10 16 0.00 0.00
4:53 am 04:53 Cloudy 68 20 60 15.6 76 76 WSW 15 24 30.01 1016 10 16 0.00 0.00
5:53 am 05:53 Cloudy 67 19.4 60 15.6 79 79 W 9 15 30.03 1017 10 16 0.00 0.00
6:51 am 06:51 Cloudy 66 19 59 15 78 78 NW 7 11 30.04 1017 10 16 0.00 0.00
6:53 am 06:53 Cloudy 66 18.9 59 15 78 78 NW 8 13 30.04 1017 9 14 0.00 0.00
7:10 am 07:10 Cloudy with Heavy Rain 65 18.3 59 15 81 81 NW 8 13 30.05 1018 2 3 0.04 1.02
7:21 am 07:21 Cloudy with Light Rain 64 17.8 58 14.4 81 81 NW 7 11 30.05 1018 3 5 0.05 1.27
7:33 am 07:33 Cloudy with Light Rain 64 17.8 58 14.4 81 81 NW 7 11 30.06 1018 4 6 0.06 1.52
7:42 am 07:42 Cloudy 63 17.2 58 14.4 84 84 NW 6 9 30.06 1018 7 11 0.06 1.52
7:53 am 07:53 Cloudy 63 17.2 57 13.9 81 81 NW 6 9 30.06 1018 7 11 0.06 1.52
8:44 am 08:44 Cloudy 63 17.2 58 14.4 84 84 Calm 30.08 1019 8 13 0.01 0.25
8:53 am 08:53 Cloudy 63 17.2 57 13.9 81 81 WNW 3 6 30.08 1019 9 14 0.01 0.25
9:13 am 09:13 Cloudy 63 17.2 58 14.4 84 84 Calm 30.08 1019 7 11 0.00 0.00
9:45 am 09:45 Cloudy 64 17.8 58 14.4 81 81 Calm 30.07 1018 10 16 0.00 0.00
9:53 am 09:53 Cloudy 64 17.8 57 13.9 78 78 ESE 3 6 30.07 1018 10 16 0.00 0.00
10:08 am 10:08 Cloudy 65 18.3 58 14.4 78 78 Calm 30.08 1019 10 16 0.00 0.00
10:16 am 10:16 Cloudy 64 17.8 58 14.4 81 81 Calm 30.09 1019 10 16 0.00 0.00
10:25 am 10:25 Cloudy 65 18.3 58 14.4 78 78 Calm 30.09 1019 10 16 0.00 0.00
10:35 am 10:35 Cloudy 66 18.9 58 14.4 75 75 Calm 30.09 1019 10 16 0.00 0.00
10:53 am 10:53 Cloudy 66 18.9 58 14.4 75 75 Calm 30.09 1019 10 16 0.00 0.00
11:34 am 11:34 Mostly Cloudy 68 20 59 15 73 73 W 3 6 30.08 1019 10 16 0.00 0.00
11:53 am 11:53 Mostly Cloudy 68 20 60 15.6 76 76 Calm 30.07 1018 10 16 0.00 0.00
12:48 pm 12:48 Partly Cloudy 72 22 63 17 73 73 VRB 3 6 30.03 1017 10 16 0.00 0.00
12:53 pm 12:53 Partly Cloudy 71 21.7 62 16.7 73 73 Calm 30.03 1017 10 16 0.00 0.00
1:53 pm 13:53 Cloudy 73 22.8 62 16.7 69 69 Calm 30.02 1017 10 16 0.00 0.00
2:18 pm 14:18 Cloudy 72 22.2 63 17.2 73 73 Calm 30.02 1017 10 16 0.00 0.00
2:53 pm 14:53 Cloudy 72 22.2 63 17.2 73 73 Calm 30.02 1017 10 16 0.00 0.00
3:53 pm 15:53 Mostly Cloudy 73 22.8 64 17.8 74 74 SSE 6 9 30.01 1016 10 16 0.00 0.00
4:53 pm 16:53 Cloudy 72 22.2 63 17.2 73 73 SE 6 9 30.00 1016 10 16 0.00 0.00
5:53 pm 17:53 Mostly Cloudy 69 20.6 62 16.7 78 78 SE 7 11 30.02 1017 10 16 0.00 0.00
6:53 pm 18:53 Clear 68 20 61 16.1 78 78 SE 3 6 30.02 1017 10 16 0.00 0.00
7:53 pm 19:53 Mostly Clear 66 18.9 60 15.6 81 81 ESE 3 6 30.04 1017 10 16 0.00 0.00
8:53 pm 20:53 Clear 67 19.4 60 15.6 79 79 SSE 6 9 30.04 1017 10 16 0.00 0.00
9:53 pm 21:53 Clear 69 20.6 59 15 70 70 SSE 13 20 30.01 1016 10 16 0.00 0.00
10:53 pm 22:53 Mostly Cloudy 70 21.1 60 15.6 71 71 S 13 20 30.00 1016 10 16 0.00 0.00
11:53 pm 23:53 Cloudy 70 21.1 60 15.6 71 71 S 17 28 30.01 1016 10 16 0.00 0.00

Powered by AerisWeather